This is the latest recevied weather packets stored in our database for station/object KK7MLS-13. If no packets are shown the sender has not sent any weather packets the latest 10 day(s).
| Time | Temp. | Humidity | Pressure | Rain* | Wind** | Luminosity | Snow |
|---|---|---|---|---|---|---|---|
| 1787949055 | 25° C | 46% | 1017.5 hPa | 0 mm | - | 733 W/m² | - |
| 1787948751 | 25° C | 49% | 1017.6 hPa | 0 mm | - | 768 W/m² | - |
| 1787948446 | 23.89° C | 51% | 1017.8 hPa | 0 mm | - | 785 W/m² | - |
| 1787948142 | 24.44° C | 47% | 1017.6 hPa | 0 mm | - | 738 W/m² | - |
| 1787947841 | 23.89° C | 52% | 1017.9 hPa | 0 mm | - | 768 W/m² | - |
| 1787947540 | 22.78° C | 54% | 1017.8 hPa | 0 mm | - | 737 W/m² | - |
| 1787947239 | 22.78° C | 53% | 1017.9 hPa | 0 mm | - | 719 W/m² | - |
| 1787946938 | 23.33° C | 52% | 1018 hPa | 0 mm | - | 215 W/m² | - |
| 1787946637 | 24.44° C | 50% | 1018.1 hPa | 0 mm | - | 235 W/m² | - |
| 1787946332 | 23.89° C | 51% | 1018.2 hPa | 0 mm | - | 876 W/m² | - |
| 1787946028 | 24.44° C | 49% | 1018.1 hPa | 0 mm | - | 508 W/m² | - |
| 1787945727 | 25° C | 51% | 1018.2 hPa | 0 mm | - | 830 W/m² | - |
| 1787945423 | 23.89° C | 51% | 1018.1 hPa | 0 mm | - | 542 W/m² | - |
| 1787945118 | 23.33° C | 55% | 1018.4 hPa | 0 mm | - | 768 W/m² | - |
| 1787944815 | 22.78° C | 53% | 1018.2 hPa | 0 mm | - | 752 W/m² | - |
| 1787944514 | 22.78° C | 52% | 1018.3 hPa | 0 mm | - | 308 W/m² | - |
| 1787944207 | 21.11° C | 58% | 1018.4 hPa | 0 mm | - | 769 W/m² | - |
| 1787943905 | 21.67° C | 56% | 1018.6 hPa | 0 mm | - | 396 W/m² | - |
| 1787943601 | 22.22° C | 58% | 1018.6 hPa | 0 mm | - | 174 W/m² | - |
| 1787943301 | 22.22° C | 55% | 1018.5 hPa | 0 mm | - | 187 W/m² | - |
| 1787942995 | 22.22° C | 58% | 1018.6 hPa | 0 mm | - | 192 W/m² | - |
| 1787942691 | 22.78° C | 52% | 1018.8 hPa | 0 mm | - | 279 W/m² | - |
| 1787942390 | 21.67° C | 56% | 1018.8 hPa | 0 mm | - | 588 W/m² | - |
| 1787942086 | 21.11° C | 57% | 1018.7 hPa | 0 mm | - | 722 W/m² | - |
| 1787941781 | 20.56° C | 62% | 1018.6 hPa | 0 mm | - | 200 W/m² | - |
* Rain latest hour (hover to see other rain measurements)
** Current wind speed in m/s (hover to see current wind gust speed)